Nadezhda 4 Rocket - Orbit

View from above orbital plane
View from above orbital plane
View from above satellite
View from above satellite

Ground track
Ground track

The orbit data is extracted from the following two-line orbital elements,

1 23180U 94041B   13143.51430152  .00000125  00000-0  10915-3 0  2153
2 23180 082.9449 316.4550 0030136 071.4834 341.4772 13.77787005948314
Epoch (UTC): 23 May 2013 12:20:35
Eccentricity: 0.0030136
inclination: 82.9449°
perigee height: 949 km
apogee height: 994 km
right ascension of ascending node: 316.4550°
argument of perigee: 71.4834°
revolutions per day: 13.77787005
mean anomaly at epoch: 341.4772°
orbit number at epoch: 94831

The dashed part of the orbit path shows where the satellite is in the earth's shadow,  

Developed and maintained by Chris Peat, Heavens-Above GmbH. Please read the updated FAQ before sending e-mail. Imprint. DLR